Flag Weather past 2 weeks in Redmond, Washington, U.S.A.

Now
46 °F

Light rain. Mostly cloudy.


Feels Like: 43 °F
Forecast: 38 / 54 °F
Wind: 6 mph from North

Location: Seattle Boeing Field

Current Time: Nov 28, 2014 at 12:37:58 PM

Latest Report: Nov 28, 2014 at 11:53 AM


Visibility: 3 mi

Pressure: 29.50 "Hg

Humidity: 83%

Dew point: 41 °F

Location of RedmondLocation

Historic Weather in Redmond — Graph

°F

Redmond temperature yesterday

Maximum temperature yesterday: 62 °F (at 12:53 AM)
Minimum temperature yesterday: 56 °F (at 4:53 AM)
Average temperature yesterday: 58 °F

Past Weeks' High & Low Weather Summary

 TemperatureHumidityPressure
High62 °F (Nov 27, 12:53 AM)90% (Nov 25, 4:53 AM)30.54 "Hg (Nov 25, 4:53 AM)
Low27 °F (Nov 15, 6:53 AM)18% (Nov 13, 12:53 PM)29.31 "Hg (Nov 21, 5:53 PM)
Average47 °F68%30.07 "Hg
* Reported Nov 13 10:53 AM — Nov 28 10:53 AM, Redmond, Weather by CustomWeather, © 2014

Note: Actual official high and low records may vary slightly from our data, if they occured in-between our weather recording intervals... More about our weather records

Advertising

Redmond weather history for previous 24 hours

 ConditionsComfort  
Time TempWeatherWind HumidityBarometerVisibility
10:53 AM
Nov 28
47 °FRain. Mostly cloudy.7 mph83%29.52 "Hg3 mi
9:57 AM48 °FRain. Fog.6 mph87%29.53 "Hg3 mi
8:53 AM56 °FRain. More clouds than sun.8 mph84%29.50 "Hg3 mi
7:53 AM57 °FLight rain. Overcast.9 mph74%29.51 "Hg8 mi
6:53 AM58 °FMostly cloudy.10 mph72%29.52 "Hg10 mi
5:53 AM57 °FMostly cloudy.14 mph74%29.55 "Hg10 mi
4:53 AM57 °FLight rain. Mostly cloudy.14 mph78%29.58 "Hg10 mi
3:53 AM57 °FLight rain. Overcast.15 mph74%29.60 "Hg10 mi
2:53 AM57 °FMostly cloudy.14 mph74%29.64 "Hg10 mi
1:53 AM57 °FLight rain. Mostly cloudy.10 mph74%29.65 "Hg10 mi
12:53 AM57 °FLight rain. Overcast.12 mph78%29.66 "Hg10 mi
11:53 PM
Nov 27
57 °FLight rain. Mostly cloudy.12 mph78%29.68 "Hg6 mi
10:53 PM58 °FLight rain. Mostly cloudy.13 mph72%29.71 "Hg10 mi
9:53 PM58 °FMostly cloudy.14 mph72%29.71 "Hg10 mi
8:53 PM57 °FMostly cloudy.15 mph78%29.74 "Hg10 mi
7:53 PM57 °FOvercast.16 mph78%29.73 "Hg10 mi
6:53 PM57 °FOvercast.15 mph81%29.75 "Hg8 mi
5:53 PM58 °FLight rain. Overcast.16 mph75%29.75 "Hg10 mi
4:53 PM59 °FMostly cloudy.9 mph69%29.75 "Hg10 mi
3:53 PM60 °FPartly sunny.17 mph67%29.78 "Hg10 mi
2:53 PM59 °FCloudy.12 mph72%29.78 "Hg10 mi
1:56 PM59 °FMostly cloudy.13 mph72%29.80 "Hg10 mi
12:53 PM59 °FCloudy.17 mph75%29.80 "Hg9 mi
Weather by CustomWeather, © 2014

See weather overviewHow to use our weather pages